When you browse on this site, cookies collect data to enhance your experience and personalize the content and advertising you see.
Visit our Privacy Policy to learn more. By continuing to use the site, you agree to this use of cookies and data.
  • In Lithuania
  • List of Countries
  • For 7 days
  • Water Temperature
  • Weather Map
  • Weather Widgets
  • user-avatar
    Login

    Hourly Weather Aylesbury

    Today, 29 May, Friday

    Time Temperature Precipitation Wind Pressure Humidity
    00:00 +9°C° 0 mm 3 mps 765 mmHg 77%
    01:00 +9°C° 0 mm 3 mps 765 mmHg 78%
    02:00 +8°C° 0 mm 3 mps 764 mmHg 80%
    03:00 +8°C° 0 mm 3 mps 764 mmHg 81%
    04:00 +9°C° 0 mm 3 mps 764 mmHg 81%
    05:00 +10°C° 0 mm 3 mps 764 mmHg 81%
    06:00 +11°C° 0 mm 3 mps 764 mmHg 82%
    07:00 +13°C° 0 mm 3 mps 764 mmHg 75%
    08:00 +16°C° 0 mm 3 mps 764 mmHg 68%
    09:00 +17°C° 0 mm 3 mps 764 mmHg 61%
    10:00 +18°C° 0 mm 3 mps 763 mmHg 59%
    11:00 +19°C° 0 mm 4 mps 763 mmHg 56%
    12:00 +20°C° 0 mm 4 mps 763 mmHg 53%
    13:00 +20°C° 0 mm 4 mps 763 mmHg 54%
    14:00 +20°C° 0 mm 4 mps 762 mmHg 54%
    15:00 +20°C° 0 mm 4 mps 762 mmHg 55%
    16:00 +19°C° 0 mm 4 mps 762 mmHg 59%
    17:00 +18°C° 0 mm 4 mps 761 mmHg 63%
    18:00 +18°C° 0 mm 3 mps 761 mmHg 68%
    19:00 +16°C° 0 mm 3 mps 761 mmHg 70%
    20:00 +12°C° 0 mm 3 mps 761 mmHg 72%
    21:00 +10°C° 0 mm 3 mps 761 mmHg 74%
    22:00 +9°C° 0 mm 3 mps 761 mmHg 76%
    23:00 +8°C° 0 mm 3 mps 761 mmHg 78%

    Tomorrow, 30 May, Saturday

    Time Temperature Precipitation Wind Pressure Humidity
    00:00 +7°C° 0 mm 3 mps 761 mmHg 81%
    01:00 +7°C° 0 mm 3 mps 761 mmHg 84%
    02:00 +5°C° 0 mm 3 mps 761 mmHg 87%
    03:00 +5°C° 0 mm 3 mps 761 mmHg 91%
    04:00 +7°C° 0 mm 3 mps 761 mmHg 90%
    05:00 +8°C° 0 mm 3 mps 761 mmHg 88%
    06:00 +9°C° 0 mm 3 mps 761 mmHg 87%
    07:00 +12°C° 0 mm 3 mps 761 mmHg 82%
    08:00 +14°C° 0 mm 3 mps 761 mmHg 77%
    09:00 +18°C° 0 mm 4 mps 761 mmHg 72%
    10:00 +19°C° 0 mm 4 mps 760 mmHg 67%
    11:00 +20°C° 0 mm 4 mps 760 mmHg 62%
    12:00 +21°C° 0 mm 5 mps 760 mmHg 58%
    13:00 +21°C° 0 mm 5 mps 760 mmHg 58%
    14:00 +21°C° 0 mm 5 mps 760 mmHg 57%
    15:00 +21°C° 0 mm 5 mps 760 mmHg 57%
    16:00 +20°C° 0 mm 5 mps 759 mmHg 61%
    17:00 +19°C° 0 mm 4 mps 759 mmHg 65%
    18:00 +18°C° 0 mm 4 mps 759 mmHg 69%
    19:00 +15°C° 0 mm 4 mps 759 mmHg 74%
    20:00 +14°C° 0 mm 4 mps 760 mmHg 78%
    21:00 +12°C° 0 mm 3 mps 760 mmHg 82%
    22:00 +11°C° 0 mm 3 mps 760 mmHg 85%
    23:00 +10°C° 0 mm 3 mps 760 mmHg 88%

    Day after tomorrow, 31 May, Sunday

    Time Temperature Precipitation Wind Pressure Humidity
    00:00 +9°C° 0 mm 3 mps 760 mmHg 91%
    01:00 +9°C° 0 mm 3 mps 760 mmHg 92%
    02:00 +8°C° 0 mm 3 mps 760 mmHg 93%
    03:00 +8°C° 0 mm 3 mps 760 mmHg 93%
    04:00 +9°C° 0 mm 3 mps 760 mmHg 91%
    05:00 +10°C° 0 mm 4 mps 761 mmHg 88%
    06:00 +11°C° 0 mm 4 mps 761 mmHg 86%
    07:00 +13°C° 0 mm 4 mps 761 mmHg 79%
    08:00 +15°C° 0 mm 4 mps 761 mmHg 71%
    09:00 +17°C° 0 mm 5 mps 761 mmHg 64%
    10:00 +19°C° 0 mm 5 mps 761 mmHg 61%
    11:00 +20°C° 0 mm 5 mps 761 mmHg 58%
    12:00 +21°C° 0 mm 5 mps 761 mmHg 55%
    13:00 +21°C° 0 mm 5 mps 761 mmHg 56%
    14:00 +21°C° 0 mm 4 mps 761 mmHg 58%
    15:00 +21°C° 0 mm 4 mps 760 mmHg 59%
    16:00 +20°C° 0.1 mm 4 mps 760 mmHg 63%
    17:00 +20°C° 0.1 mm 4 mps 760 mmHg 67%
    18:00 +19°C° 0.1 mm 3 mps 760 mmHg 72%
    19:00 +17°C° 0 mm 3 mps 761 mmHg 77%
    20:00 +14°C° 0 mm 3 mps 761 mmHg 82%
    21:00 +12°C° 0 mm 3 mps 761 mmHg 88%
    22:00 +11°C° 0 mm 3 mps 761 mmHg 89%
    23:00 +10°C° 0 mm 3 mps 761 mmHg 90%

    1 June, Monday

    Time Temperature Precipitation Wind Pressure Humidity
    00:00 +9°C° 0 mm 3 mps 761 mmHg 91%
    01:00 +9°C° 0 mm 3 mps 761 mmHg 91%
    02:00 +8°C° 0 mm 3 mps 760 mmHg 91%
    03:00 +7°C° 0 mm 3 mps 760 mmHg 91%
    04:00 +8°C° 0 mm 3 mps 760 mmHg 89%
    05:00 +9°C° 0 mm 3 mps 760 mmHg 88%
    06:00 +10°C° 0 mm 3 mps 760 mmHg 86%
    07:00 +12°C° 0 mm 3 mps 760 mmHg 81%
    08:00 +14°C° 0 mm 4 mps 760 mmHg 76%
    09:00 +17°C° 0 mm 4 mps 760 mmHg 71%
    10:00 +18°C° 0 mm 3 mps 760 mmHg 67%
    11:00 +19°C° 0 mm 3 mps 760 mmHg 63%
    12:00 +20°C° 0 mm 3 mps 760 mmHg 59%
    13:00 +20°C° 0 mm 3 mps 759 mmHg 61%
    14:00 +20°C° 0 mm 3 mps 759 mmHg 62%
    15:00 +21°C° 0 mm 4 mps 759 mmHg 63%
    16:00 +20°C° 0 mm 4 mps 759 mmHg 66%
    17:00 +20°C° 0 mm 3 mps 758 mmHg 70%
    18:00 +19°C° 0 mm 3 mps 758 mmHg 73%
    19:00 +17°C° 0 mm 3 mps 758 mmHg 78%
    20:00 +16°C° 0 mm 3 mps 758 mmHg 84%
    21:00 +13°C° 0 mm 3 mps 758 mmHg 90%
    22:00 +12°C° 0 mm 3 mps 758 mmHg 90%
    23:00 +12°C° 0 mm 2 mps 758 mmHg 91%

    2 June, Tuesday

    Time Temperature Precipitation Wind Pressure Humidity
    00:00 +10°C° 0 mm 2 mps 758 mmHg 92%
    01:00 +10°C° 0 mm 2 mps 757 mmHg 92%
    02:00 +9°C° 0 mm 2 mps 757 mmHg 92%
    03:00 +9°C° 0 mm 2 mps 757 mmHg 93%
    04:00 +9°C° 0 mm 2 mps 757 mmHg 90%
    05:00 +10°C° 0 mm 2 mps 756 mmHg 88%
    06:00 +10°C° 0 mm 2 mps 756 mmHg 85%
    07:00 +12°C° 0 mm 3 mps 756 mmHg 78%
    08:00 +14°C° 0 mm 3 mps 756 mmHg 72%
    09:00 +17°C° 0 mm 3 mps 756 mmHg 65%
    10:00 +17°C° 0 mm 3 mps 756 mmHg 63%
    11:00 +18°C° 0 mm 3 mps 755 mmHg 61%
    12:00 +19°C° 0 mm 3 mps 755 mmHg 59%
    13:00 +20°C° 0 mm 3 mps 754 mmHg 61%
    14:00 +20°C° 0 mm 3 mps 754 mmHg 62%
    15:00 +20°C° 0 mm 3 mps 753 mmHg 63%
    16:00 +19°C° 0 mm 3 mps 753 mmHg 68%
    17:00 +19°C° 0 mm 3 mps 753 mmHg 72%
    18:00 +18°C° 0 mm 3 mps 752 mmHg 77%
    19:00 +17°C° 0 mm 3 mps 752 mmHg 82%
    20:00 +16°C° 0 mm 3 mps 752 mmHg 87%
    21:00 +13°C° 0 mm 3 mps 752 mmHg 92%
    22:00 +13°C° 0.2 mm 4 mps 752 mmHg 94%
    23:00 +13°C° 0.2 mm 4 mps 752 mmHg 95%

    3 June, Wednesday

    Time Temperature Precipitation Wind Pressure Humidity
    00:00 +13°C° 0.2 mm 4 mps 751 mmHg 96%
    01:00 +12°C° 0.3 mm 5 mps 751 mmHg 96%
    02:00 +12°C° 0.3 mm 5 mps 751 mmHg 96%
    03:00 +12°C° 0.3 mm 5 mps 750 mmHg 96%
    04:00 +12°C° 0.3 mm 5 mps 750 mmHg 96%
    05:00 +11°C° 0.3 mm 6 mps 750 mmHg 96%
    06:00 +11°C° 0.3 mm 6 mps 750 mmHg 96%
    07:00 +11°C° 2.3 mm 6 mps 750 mmHg 96%
    08:00 +11°C° 2.3 mm 6 mps 750 mmHg 96%
    09:00 +13°C° 2.3 mm 6 mps 750 mmHg 96%
    10:00 +12°C° 0.7 mm 7 mps 750 mmHg 95%
    11:00 +14°C° 0.7 mm 7 mps 749 mmHg 93%
    12:00 +13°C° 0.7 mm 8 mps 749 mmHg 92%
    13:00 +15°C° 0.1 mm 8 mps 749 mmHg 89%
    14:00 +16°C° 0.1 mm 8 mps 749 mmHg 85%
    15:00 +17°C° 0.1 mm 8 mps 749 mmHg 82%
    16:00 +16°C° 0.1 mm 8 mps 749 mmHg 82%
    17:00 +16°C° 0.1 mm 8 mps 749 mmHg 83%
    18:00 +15°C° 0.1 mm 8 mps 749 mmHg 83%
    19:00 +13°C° 0 mm 8 mps 749 mmHg 84%
    20:00 +12°C° 0 mm 8 mps 749 mmHg 85%
    21:00 +12°C° 0 mm 8 mps 750 mmHg 86%
    22:00 +11°C° 0 mm 8 mps 750 mmHg 86%
    23:00 +11°C° 0 mm 8 mps 750 mmHg 87%
    Show more